Darstellungsparameter: Aktuell verwendete Einstellungen:
Skalierung der Graphiken ... ?
xyx+y,   Skalierungsfaktor:      Skalierung: Modus: x, Faktor: 1
Darstellungszeitraum ... ?
Vom - - bis: - -   Zeitraum: 23.08.2003 - 23.08.2003
Min/Max/Avg-Anzeige ... ?
Zeige MMA aktuell
Zeige MMA Monat
Zeige MMA alles
Zeige --A aktuell
Zeige --A Monat
Zeige --A alles
Keine MMA-Anzeige
MMA:
Minimum Maximum Average (ber die Originaldaten)
MMA-Basis: 23.02.2003 - 30.09.2000
Quicknavigation für Darstellung... ?
Tage:      1T, 2T, 3T, 5T -1T -2T -3T -5T +1T +2T +3T +5T
Wochen: 1W, 2W, 3W -1W -2W -3W +1W +2W +3W
Monate: 1M, 3M, 6M -1M -3M -6M +1M +3M +6M
Jahre:    1J, 3J, 5J, 10J -1J -3J -5J -10J +1J +3J +5J +10J
Nutze für die Darstellung ... ?
Originaldaten oder Mittelwerte auf ...
Stundenbasis Tagesbasis Wochenbasis
Monatsbasis Jahresbasis      Datenbasis: Original-Daten
Darstellen als:
Statistik (Auto) Statistik J:M      Darstellung:
Zur Graphik,    zurück zur Übersicht aller Sensoren.
 
Tabellarische Datenbersicht: ?
 
Sensor: Nr:Datum:Temp:Abs-Feuchte:Windchill:Wind:
Aussen-T/F 1 23-08-2003 00:07:04 19.1 C 9.67 g/m*3 19.1 C 0 km/h
2 23-08-2003 00:19:04 18.9 C 9.88 g/m*3 18.9 C 0 km/h
3 23-08-2003 00:31:04 18.9 C 9.88 g/m*3 18.9 C 0 km/h
4 23-08-2003 00:43:04 19 C 9.78 g/m*3 19 C 0 km/h
5 23-08-2003 00:55:04 19 C 9.78 g/m*3 19 C 0 km/h
6 23-08-2003 01:07:04 18.9 C 9.88 g/m*3 18.9 C 0 km/h
7 23-08-2003 01:19:04 18.8 C 9.99 g/m*3 18.8 C 0 km/h
8 23-08-2003 01:31:04 18.5 C 9.97 g/m*3 18.5 C 0 km/h
9 23-08-2003 01:43:04 18.3 C 10.01 g/m*3 18.3 C 0 km/h
10 23-08-2003 01:55:04 18.2 C 10.1 g/m*3 18.2 C 0 km/h
11 23-08-2003 02:07:04 18.1 C 10.04 g/m*3 18.1 C 0 km/h
12 23-08-2003 02:19:04 18.2 C 10.1 g/m*3 18.2 C 0 km/h
13 23-08-2003 02:31:04 18.1 C 10.04 g/m*3 18.1 C 0 km/h
14 23-08-2003 02:43:04 18.1 C 10.04 g/m*3 18.1 C 0 km/h
15 23-08-2003 02:55:04 17.8 C 10.17 g/m*3 17.8 C 0 km/h
16 23-08-2003 03:07:04 17.4 C 10.08 g/m*3 17.4 C 0 km/h
17 23-08-2003 03:19:04 17 C 9.98 g/m*3 17 C 0 km/h
18 23-08-2003 03:31:04 17 C 10.13 g/m*3 17 C 0 km/h
19 23-08-2003 03:43:04 16.8 C 10.29 g/m*3 16.8 C 0 km/h
20 23-08-2003 03:55:04 16.8 C 10.29 g/m*3 16.8 C 0 km/h
21 23-08-2003 04:07:04 16.9 C 10.21 g/m*3 16.9 C 0 km/h
22 23-08-2003 04:19:04 16.6 C 10.31 g/m*3 16.6 C 0 km/h
23 23-08-2003 04:31:04 16.6 C 10.31 g/m*3 16.6 C 0 km/h
24 23-08-2003 04:43:04 16.4 C 10.19 g/m*3 16.4 C 0 km/h
25 23-08-2003 04:55:04 16.4 C 10.33 g/m*3 16.4 C 0 km/h
Sensor: Nr:Datum:Temp:Abs-Feuchte:Windchill:Wind:
Aussen-T/F 26 23-08-2003 05:07:04 16.3 C 10.27 g/m*3 16.3 C 0 km/h
27 23-08-2003 05:19:04 16.2 C 10.2 g/m*3 16.2 C 0 km/h
28 23-08-2003 05:31:04 16.1 C 10.14 g/m*3 16.1 C 0 km/h
29 23-08-2003 05:43:04 16 C 10.22 g/m*3 16 C 0 km/h
30 23-08-2003 05:55:04 15.9 C 10.43 g/m*3 15.9 C 0 km/h
31 23-08-2003 06:07:04 15.8 C 10.36 g/m*3 15.8 C 0 km/h
32 23-08-2003 06:19:04 15.6 C 10.37 g/m*3 15.6 C 0 km/h
33 23-08-2003 06:31:04 15.5 C 10.31 g/m*3 15.5 C 0 km/h
34 23-08-2003 06:43:04 15.4 C 10.25 g/m*3 15.4 C 0 km/h
35 23-08-2003 06:55:04 15.4 C 10.38 g/m*3 15.4 C 0 km/h
36 23-08-2003 07:07:04 15.4 C 10.38 g/m*3 15.4 C 0 km/h
37 23-08-2003 07:19:04 15.4 C 10.38 g/m*3 15.4 C 0 km/h
38 23-08-2003 07:31:04 15.4 C 10.38 g/m*3 15.4 C 0 km/h
39 23-08-2003 07:43:04 15.6 C 10.37 g/m*3 15.6 C 0 km/h
40 23-08-2003 07:55:04 16 C 10.35 g/m*3 16 C 0 km/h
41 23-08-2003 08:07:04 16.2 C 10.34 g/m*3 16.2 C 0 km/h
42 23-08-2003 08:19:04 16.6 C 10.45 g/m*3 16.6 C 0 km/h
43 23-08-2003 08:31:04 16.9 C 10.5 g/m*3 16.9 C 0 km/h
44 23-08-2003 08:43:01 16.9 C 10.64 g/m*3 16.9 C 0 km/h
45 23-08-2003 08:55:01 17.2 C 10.54 g/m*3 17.2 C 0 km/h
46 23-08-2003 09:07:01 17.7 C 10.71 g/m*3 17.7 C 0 km/h
47 23-08-2003 09:19:01 18.1 C 10.82 g/m*3 18.1 C 0 km/h
48 23-08-2003 09:31:01 19 C 10.92 g/m*3 19 C 0 km/h
49 23-08-2003 09:43:01 19.4 C 10.84 g/m*3 19.4 C 0 km/h
50 23-08-2003 09:55:01 19.8 C 10.93 g/m*3 19.8 C 0 km/h
Sensor: Nr:Datum:Temp:Abs-Feuchte:Windchill:Wind:
Aussen-T/F 51 23-08-2003 10:07:02 20.2 C 10.67 g/m*3 20.2 C 0 km/h
52 23-08-2003 10:19:02 20.8 C 10.86 g/m*3 20.8 C 0 km/h
53 23-08-2003 10:31:02 21.8 C 10.74 g/m*3 21.8 C 0 km/h
54 23-08-2003 10:43:02 22.1 C 10.54 g/m*3 22.1 C 0 km/h
55 23-08-2003 10:55:02 22.5 C 10.79 g/m*3 22.5 C 0 km/h
56 23-08-2003 11:07:02 22.1 C 10.74 g/m*3 22.1 C 0 km/h
57 23-08-2003 11:19:02 22.1 C 10.93 g/m*3 22.1 C 0 km/h
58 23-08-2003 11:31:02 22.1 C 11.32 g/m*3 22.1 C 0 km/h
59 23-08-2003 11:43:01 23.5 C 10.79 g/m*3 23.5 C 0 km/h
60 23-08-2003 11:55:01 24 C 10.23 g/m*3 24 C 0 km/h
61 23-08-2003 12:07:02 24.2 C 10.56 g/m*3 24.2 C 0 km/h
62 23-08-2003 12:19:02 24.4 C 10.68 g/m*3 24.4 C 0 km/h
63 23-08-2003 12:31:02 25.4 C 10.83 g/m*3 25.4 C 0 km/h
64 23-08-2003 12:43:00 25.6 C 10.48 g/m*3 25.6 C 0 km/h
65 23-08-2003 12:55:00 25.7 C 10.53 g/m*3 25.7 C 0 km/h
66 23-08-2003 13:07:00 26.1 C 10.28 g/m*3 26.1 C 0 km/h
67 23-08-2003 13:19:00 25.9 C 10.89 g/m*3 25.9 C 0 km/h
68 23-08-2003 13:31:00 25.5 C 11.13 g/m*3 25.5 C 0 km/h
69 23-08-2003 13:43:01 25.2 C 11.64 g/m*3 25.2 C 0 km/h
70 23-08-2003 13:55:01 25 C 11.28 g/m*3 25 C 0 km/h
71 23-08-2003 14:07:02 25.2 C 10.71 g/m*3 25.2 C 0 km/h
72 23-08-2003 14:19:02 25.8 C 10.83 g/m*3 25.8 C 0 km/h
73 23-08-2003 14:31:02 26.5 C 10.76 g/m*3 26.5 C 0 km/h
74 23-08-2003 14:43:01 27.7 C 10.97 g/m*3 27.7 C 0 km/h
75 23-08-2003 14:55:01 28.3 C 10.78 g/m*3 28.3 C 0 km/h
Sensor: Nr:Datum:Temp:Abs-Feuchte:Windchill:Wind:
Aussen-T/F 76 23-08-2003 15:07:01 28.1 C 10.94 g/m*3 28.1 C 0 km/h
77 23-08-2003 15:19:01 28.6 C 10.68 g/m*3 28.6 C 0 km/h
78 23-08-2003 15:31:01 27.8 C 10.76 g/m*3 27.8 C 0 km/h
79 23-08-2003 15:43:01 27.5 C 10.85 g/m*3 27.5 C 0 km/h
80 23-08-2003 15:55:01 26.6 C 10.57 g/m*3 26.6 C 0 km/h
81 23-08-2003 16:07:02 26.5 C 10.51 g/m*3 26.5 C 0 km/h
82 23-08-2003 16:19:02 27.5 C 10.32 g/m*3 27.5 C 0 km/h
83 23-08-2003 16:31:02 27.5 C 10.85 g/m*3 27.5 C 0 km/h
84 23-08-2003 16:43:01 27.5 C 10.85 g/m*3 27.5 C 0 km/h
85 23-08-2003 16:55:01 27.4 C 11.05 g/m*3 27.4 C 0 km/h
86 23-08-2003 17:07:03 26.9 C 10.75 g/m*3 26.9 C 0 km/h
87 23-08-2003 17:19:03 27.2 C 10.41 g/m*3 27.2 C 0 km/h
88 23-08-2003 17:31:03 27.7 C 10.43 g/m*3 27.7 C 0 km/h
89 23-08-2003 17:43:01 27.9 C 10.55 g/m*3 27.9 C 0 km/h
90 23-08-2003 17:55:01 28 C 10.06 g/m*3 28 C 0 km/h
91 23-08-2003 18:07:01 27.6 C 10.38 g/m*3 27.6 C 0 km/h
92 23-08-2003 18:19:01 26.6 C 10.57 g/m*3 26.6 C 0 km/h
93 23-08-2003 18:31:01 26.3 C 10.64 g/m*3 26.3 C 0 km/h
94 23-08-2003 18:43:08 25.9 C 10.89 g/m*3 25.9 C 0 km/h
95 23-08-2003 18:55:08 25.5 C 10.89 g/m*3 25.5 C 0 km/h
96 23-08-2003 19:07:01 26.5 C 10.76 g/m*3 26.5 C 0 km/h
97 23-08-2003 19:19:01 27.2 C 10.93 g/m*3 27.2 C 0 km/h
98 23-08-2003 19:31:01 26.4 C 10.46 g/m*3 26.4 C 0 km/h
99 23-08-2003 19:43:01 26.2 C 10.59 g/m*3 26.2 C 0 km/h
100 23-08-2003 19:55:01 26.1 C 10.77 g/m*3 26.1 C 0 km/h
Sensor: Nr:Datum:Temp:Abs-Feuchte:Windchill:Wind:
Aussen-T/F 101 23-08-2003 20:07:01 25.5 C 11.36 g/m*3 25.5 C 0 km/h
102 23-08-2003 20:19:01 24.5 C 11.41 g/m*3 24.5 C 0 km/h
103 23-08-2003 20:31:01 24.5 C 11.64 g/m*3 24.5 C 0 km/h
104 23-08-2003 20:43:02 23.8 C 11.62 g/m*3 23.8 C 0 km/h
105 23-08-2003 20:55:02 23.9 C 11.68 g/m*3 23.9 C 0 km/h
106 23-08-2003 21:07:01 23.5 C 11.63 g/m*3 23.5 C 0 km/h
107 23-08-2003 21:19:01 23.3 C 11.71 g/m*3 23.3 C 0 km/h
108 23-08-2003 21:31:01 23.1 C 11.78 g/m*3 23.1 C 0 km/h
109 23-08-2003 21:44:01 22.7 C 11.72 g/m*3 22.7 C 0 km/h
110 23-08-2003 21:56:01 22.2 C 11.78 g/m*3 22.2 C 0 km/h
111 23-08-2003 22:08:01 22 C 12.03 g/m*3 22 C 0 km/h
112 23-08-2003 22:20:01 21.7 C 12.02 g/m*3 21.7 C 0 km/h
113 23-08-2003 22:32:01 21.5 C 11.88 g/m*3 21.5 C 0 km/h
114 23-08-2003 22:44:01 21.6 C 11.76 g/m*3 21.6 C 0 km/h
115 23-08-2003 22:56:01 21.6 C 11.95 g/m*3 21.6 C 0 km/h
116 23-08-2003 23:08:01 21.2 C 11.86 g/m*3 21.2 C 0 km/h
117 23-08-2003 23:20:01 20.9 C 12.02 g/m*3 20.9 C 0 km/h
118 23-08-2003 23:32:01 20.8 C 11.95 g/m*3 20.8 C 0 km/h
119 23-08-2003 23:44:01 20.7 C 12.06 g/m*3 20.7 C 0 km/h
120 23-08-2003 23:56:01 20.4 C 12.03 g/m*3 20.4 C 0 km/h

Legende:
   Min
   Max


Maximal/Minimal-Werte vom 23.02.2003 - 30.09.2000

Sensor Min Max Avg
Temp
(Aussen-T/F)
°C
-- 
°C 0 °C

Die Daten stammen von einer Davis Vantage Pro 2 Wetter-Station und werden unter Linux mit der Software wview2wettercgi und aufbereitet. Alle Angaben erfolgen ohne Gewähr für ihre Vollständigkeit oder Richtigkeit.
Kontakt: Rainer Krienke krienke@uni-koblenz.de . Meine Webseiten an der Uni Koblenz oder privat.
Version: $Revision: 0.78 $